Location: Pallagorio
(39.3000°N, 16.9000°E)
Time: 01:48:57
(UTC+00:00)

Aureole 1 - Pass Details

Date: 24 January 2021
Orbit: 386 x 1563 km, 74.0° (Epoch: 08 March)

Event Time Altitude Azimuth Distance (km) Brightness Sun altitude
Rises 16:51:09 0° 346° (NNW) 2,283 8.0 -9.4°
Reaches altitude 10° 16:53:08 10° 352° (N) 1,427 6.9 -9.8°
Maximum altitude 16:56:05 50° 70° (ENE) 531 4.3 -10.3°
Drops below altitude 10° 16:59:21 10° 147° (SSE) 1,586 7.0 -10.9°
Sets 17:01:39 0° 153° (SSE) 2,580 8.1 -11.4°
